Regional Weather Roundup
Issued by NWS

Home | Current Version | Previous Version | Graphics & Text | Print | Product List | Glossary On
Versions: 1 2 3 4 5 6 7 8 9 10 11 12 13 14 15 16 17 18 19 20 21 22 23 24 25 26 27 28 29 30 31 32 33 34 35 36 37 38 39 40 41 42 43 44 45 46 47 48 49 50
000
ASUS43 KTOP 191559
RWRKS

WEATHER ROUNDUP FOR KANSAS
NATIONAL WEATHER SERVICE GOODLAND KS
1100 AM CDT FRI SEP 19 2014

NOTE:  "FAIR" INDICATES FEW OR NO CLOUDS BELOW 12,000 FEET WITH NO
SIGNIFICANT WEATHER AND/OR OBSTRUCTIONS TO VISIBILITY.

KSZ001>006-013>018-027>032-041>047-191700-
NORTHWEST KANSAS

CITY           SKY/WX    TMP DP  RH WIND       PRES   REMARKS
GOODLAND       SUNNY     77  58  51 SW15G22   29.97R
HAYS           SUNNY     79  63  57 SW15      29.97S
HILL CITY      SUNNY     79  63  57 SW13G22   29.95R
RUSSELL        SUNNY     79  63  57 S16       29.95S
$$

KSZ061>065-074>080-084>089-191700-
SOUTHWEST KANSAS

CITY           SKY/WX    TMP DP  RH WIND       PRES   REMARKS
DODGE CITY     SUNNY     77  61  57 S22       30.01R
ELKHART          N/A    N/A N/A N/A MISG        N/A
GARDEN CITY    SUNNY     75  62  64 SW16      30.00R
GREAT BEND     SUNNY     81  63  54 SW14      29.98S
LIBERAL        SUNNY     77  63  61 SW16      30.04R
$$

KSZ066>073-081>083-090>101-191700-
SOUTHEAST KANSAS

CITY           SKY/WX    TMP DP  RH WIND       PRES   REMARKS
CHANUTE        CLOUDY    68  66  93 S7        30.03F FOG
COFFEYVILLE    CLOUDY    68  67  96 S9        30.03S FOG
HUTCHINSON     SUNNY     79  66  64 S8        29.99S
NEWTON         SUNNY     79  64  61 S8        30.02S
PARSONS        CLOUDY    69  67  93 VRB6      30.04S FOG
WICHITA INTL   SUNNY     80  66  62 S8        29.99F
WICHITA JABRA  SUNNY     78  67  68 S8        30.00S
WINFIELD       PTSUNNY   75  69  81 S9        30.02S
$$

KSZ007>012-019>026-033>040-048>060-102>105-191700-
NORTHEAST KANSAS

CITY           SKY/WX    TMP DP  RH WIND       PRES   REMARKS
CONCORDIA      SUNNY     77  66  68 S14       29.95F
EMPORIA        CLOUDY    67  66  97 SE9       30.01F FOG
LAWRENCE       CLOUDY    66  63  90 S9        30.03S FOG
OLATHE IND     FOG       65  64  97 S9        30.03F VSB 1
OLATHE EXE     CLOUDY    64  64 100 S8        30.03S FOG
SALINA         SUNNY     79  66  64 S9        29.97F
TOPEKA BILLARD CLOUDY    69  66  90 SE9       30.01F
TOPEKA FORBES  CLOUDY    66  64  93 S9        30.01F FOG
$$



USA.gov is the U.S. government's official web portal to all federal, state and local government web resources and services.